Regional Weather Roundup
Issued by NWS

Home | Current Version | Previous Version | Text Only | Print | Product List | Glossary Off
Versions: 1 2 3 4 5 6 7 8 9 10 11 12 13 14 15 16 17 18 19 20 21 22 23 24 25 26 27 28 29 30 31 32 33 34 35 36 37 38 39 40 41 42 43 44 45 46 47 48 49 50

000
ASUS43 KLOT 271902
RWRIL

ILLINOIS REGIONAL WEATHER ROUNDUP
NATIONAL WEATHER SERVICE CHICAGO/ROMEOVILLE IL
200 PM CDT WED MAY 27 2015

NOTE: "FAIR" INDICATES FEW OR NO CLOUDS BELOW 12,000 FEET WITH NO
SIGNIFICANT WEATHER AND/OR OBSTRUCTIONS TO VISIBILITY.

* THESE STATIONS ARE NOT UNDER NWS QUALITY CONTROL. THEY ALSO MAY NOT
  REPORT WEATHER SUCH AS PRECIPITATION OR FOG.

ILZ001-002-007-009-015-016-024-272000-
NORTHWEST ILLINOIS

CITY           SKY/WX    TMP DP  RH WIND       PRES   REMARKS
MOLINE         SUNNY     77  57  50 NW8G18    30.02S
STERLING*      MOSUNNY   75  61  60 NW13      30.03S
$$

ILZ003-004-008-010-011-017-018-272000-
NORTH CENTRAL ILLINOIS

CITY           SKY/WX    TMP DP  RH WIND       PRES   REMARKS
ROCKFORD       PTSUNNY   74  58  57 NW16      30.03R
$$

ILZ005-006-012>014-019>023-272000-
NORTHEAST ILLINOIS

CITY           SKY/WX    TMP DP  RH WIND       PRES   REMARKS
CHICAGO-OHARE  PTSUNNY   70  56  61 W16G25    29.98S
CHICAGO-MIDWAY PTSUNNY   74  61  63 W16       29.98F
AURORA         PTSUNNY   72  59  63 W15       30.01R
WAUKEGAN       PTSUNNY   68  58  70 W9G16     29.98R
DUPAGE AIRPORT PTSUNNY   74  58  57 W15G24    29.99S
WHEELING       PTSUNNY   70  55  59 W18       29.99S
NORTHERLY ISL    N/A     71  59  65 W9          N/A
$$

LMZ740>746-272000-
SOUTHERN LAKE MICHIGAN

STATION/POSITION SKY/WX   TEMP    WIND        PRES    VSBY  WAVE
                          AIR SEA DIR/SP/G                  HT/PER
                          (F)     (DEG/KT/KT) (MB)    (MI)  (FT/S)
SOUTHERN BUOY              47 38  280/  8/ 10 1015.7R         1/ 3
HARRISON CRIB              68     220/ 14/ 17   N/A
BURNHAM HARBOR             68     180/  6/ 17   N/A
CALUMET HARBOR             68     270/  5/ 21   N/A
BURNS HARBOR               63     300/ 16/ 22 1016.3R
MICHIGAN CITY              61     240/ 16/ 17   N/A
MICHIGAN CITY 6N           58 52  250/  6/  8   N/A           1/ 3
ST. JOSEPH                 58 56  280/ 10/ 12   N/A           2/ 3
$$

ILZ025>027-034>036-040-047-049-050-058-095>099-272000-
WEST-CENTRAL ILLINOIS

CITY           SKY/WX    TMP DP  RH WIND       PRES   REMARKS
QUINCY         SUNNY     76  59  55 W8G17     30.07S
$$

ILZ028>032-037-038-041>044-048-051>054-059>061-272000-
CENTRAL ILLINOIS

CITY           SKY/WX    TMP DP  RH WIND       PRES   REMARKS
DECATUR        MOSUNNY   79  63  57 W14       30.04R HX  80
PEORIA         MOSUNNY   78  60  53 W10       30.04R
SPRINGFIELD    PTSUNNY   78  59  51 W16       30.05R
TAYLORVILLE    NOT AVBL
$$

ILZ033-039-045-046-055>057-062-063-272000-
EAST-CENTRAL ILLINOIS

CITY           SKY/WX    TMP DP  RH WIND       PRES   REMARKS
CHAMPAIGN      MOSUNNY   80  62  54 W16G28    30.03R HX  81
$$

ILZ079-100>102-272000-
SOUTHWEST ILLINOIS

CITY           SKY/WX    TMP DP  RH WIND       PRES   REMARKS
ALTON          MOSUNNY   79  68  69 W12       30.06S HX  81
BELLEVILLE     MOSUNNY   82  65  58 SW6       30.04S HX  83
CAHOKIA*       MOSUNNY   81  62  52 W8        30.05S HX  82
$$

ILZ064>066-069>071-074>076-080>082-084>086-088>090-092>094-272000-
SOUTH-CENTRAL ILLINOIS

CITY           SKY/WX    TMP DP  RH WIND       PRES   REMARKS
CARBONDALE     PTSUNNY   80  64  58 SW8G18    30.09R HX  82
MARION         PTSUNNY   81  66  61 MISG      30.10R HX  83
MT. VERNON     PTSUNNY   79  64  61 SW12      30.09R HX  81
$$

ILZ067-068-072-073-078-083-087-091-272000-
SOUTHEAST ILLINOIS

CITY           SKY/WX    TMP DP  RH WIND       PRES   REMARKS
LAWRENCEVILLE  MOSUNNY   80  61  52 W10       30.08R HX  81
$$

ABBREVIATIONS USED IN REMARKS
   TC - TEMPERATURE IN CELSIUS
  WCI - WIND CHILL INDEX
   HX - HEAT INDEX
  VSB - VISIBILITY
$$



USA.gov is the U.S. government's official web portal to all federal, state and local government web resources and services.